When you browse on this site, cookies collect data to enhance your experience and personalize the content and advertising you see.
Visit our Privacy Policy to learn more. By continuing to use the site, you agree to this use of cookies and data.
  • In Hungary
  • List of Countries
  • For 7 days
  • Water Temperature
  • Satellite Maps
  • Weather Map
  • News
  • Weather Widgets
  • user-avatar
    Login

    Hourly Weather Karkal

    Today, 20 March, Wednesday

    Time Temperature Precipitation Wind Pressure Humidity
    00:00 +26°C° 0 mm 1 mps 751 mmHg 85%
    01:00 +26°C° 0 mm 1 mps 750 mmHg 85%
    02:00 +25°C° 0 mm 1 mps 750 mmHg 86%
    03:00 +25°C° 0 mm 1 mps 750 mmHg 85%
    04:00 +25°C° 0 mm 1 mps 750 mmHg 85%
    05:00 +25°C° 0 mm 1 mps 750 mmHg 84%
    06:00 +27°C° 0 mm 1 mps 751 mmHg 76%
    07:00 +29°C° 0 mm 1 mps 751 mmHg 69%
    08:00 +30°C° 0 mm 1 mps 752 mmHg 61%
    09:00 +32°C° 0 mm 1 mps 752 mmHg 53%
    10:00 +35°C° 0 mm 2 mps 752 mmHg 46%
    11:00 +37°C° 0 mm 2 mps 752 mmHg 38%
    12:00 +37°C° 0 mm 3 mps 751 mmHg 39%
    13:00 +37°C° 0 mm 3 mps 751 mmHg 40%
    14:00 +37°C° 0 mm 4 mps 750 mmHg 41%
    15:00 +36°C° 0 mm 3 mps 750 mmHg 45%
    16:00 +35°C° 0 mm 3 mps 750 mmHg 48%
    17:00 +32°C° 0 mm 2 mps 750 mmHg 52%
    18:00 +31°C° 0 mm 2 mps 750 mmHg 59%
    19:00 +29°C° 0 mm 1 mps 751 mmHg 65%
    20:00 +28°C° 0 mm 1 mps 751 mmHg 72%
    21:00 +27°C° 0 mm 1 mps 751 mmHg 73%
    22:00 +27°C° 0 mm 1 mps 752 mmHg 74%
    23:00 +27°C° 0 mm 1 mps 752 mmHg 75%

    Tomorrow, 21 March, Thursday

    Time Temperature Precipitation Wind Pressure Humidity
    00:00 +27°C° 0 mm 1 mps 751 mmHg 74%
    01:00 +27°C° 0 mm 1 mps 751 mmHg 73%
    02:00 +27°C° 0 mm 1 mps 750 mmHg 72%
    03:00 +27°C° 0 mm 1 mps 750 mmHg 73%
    04:00 +26°C° 0 mm 1 mps 750 mmHg 73%
    05:00 +26°C° 0 mm 1 mps 750 mmHg 74%
    06:00 +28°C° 0 mm 1 mps 751 mmHg 66%
    07:00 +28°C° 0 mm 0 mps 752 mmHg 57%
    08:00 +30°C° 0 mm 0 mps 753 mmHg 49%
    09:00 +34°C° 0 mm 1 mps 753 mmHg 43%
    10:00 +36°C° 0 mm 1 mps 753 mmHg 37%
    11:00 +39°C° 0 mm 2 mps 753 mmHg 31%
    12:00 +39°C° 0 mm 2 mps 752 mmHg 33%
    13:00 +38°C° 0 mm 3 mps 751 mmHg 35%
    14:00 +38°C° 0 mm 3 mps 750 mmHg 37%
    15:00 +36°C° 0 mm 3 mps 750 mmHg 40%
    16:00 +35°C° 0 mm 3 mps 750 mmHg 44%
    17:00 +34°C° 0 mm 3 mps 750 mmHg 47%
    18:00 +31°C° 0 mm 2 mps 751 mmHg 54%
    19:00 +30°C° 0 mm 2 mps 751 mmHg 61%
    20:00 +28°C° 0 mm 1 mps 752 mmHg 69%
    21:00 +28°C° 0 mm 1 mps 752 mmHg 70%
    22:00 +27°C° 0 mm 1 mps 752 mmHg 70%
    23:00 +27°C° 0 mm 1 mps 753 mmHg 71%

    Day after tomorrow, 22 March, Friday

    Time Temperature Precipitation Wind Pressure Humidity
    00:00 +27°C° 0 mm 1 mps 752 mmHg 70%
    01:00 +27°C° 0 mm 1 mps 752 mmHg 69%
    02:00 +27°C° 0 mm 1 mps 751 mmHg 68%
    03:00 +27°C° 0 mm 1 mps 751 mmHg 67%
    04:00 +25°C° 0 mm 0 mps 751 mmHg 66%
    05:00 +25°C° 0 mm 0 mps 751 mmHg 65%
    06:00 +26°C° 0 mm 0 mps 752 mmHg 60%
    07:00 +28°C° 0 mm 0 mps 753 mmHg 54%
    08:00 +30°C° 0 mm 0 mps 753 mmHg 49%
    09:00 +34°C° 0 mm 1 mps 753 mmHg 43%
    10:00 +36°C° 0 mm 1 mps 753 mmHg 37%
    11:00 +39°C° 0 mm 2 mps 753 mmHg 30%
    12:00 +39°C° 0 mm 3 mps 752 mmHg 32%
    13:00 +39°C° 0 mm 3 mps 751 mmHg 33%
    14:00 +40°C° 0 mm 4 mps 750 mmHg 34%
    15:00 +37°C° 0 mm 4 mps 750 mmHg 40%
    16:00 +36°C° 0 mm 4 mps 749 mmHg 45%
    17:00 +34°C° 0 mm 4 mps 749 mmHg 50%
    18:00 +33°C° 0 mm 3 mps 750 mmHg 56%
    19:00 +30°C° 0 mm 2 mps 750 mmHg 63%
    20:00 +28°C° 0 mm 2 mps 751 mmHg 69%
    21:00 +28°C° 0 mm 1 mps 751 mmHg 69%
    22:00 +28°C° 0 mm 1 mps 752 mmHg 69%
    23:00 +27°C° 0 mm 1 mps 752 mmHg 69%

    23 March, Saturday

    Time Temperature Precipitation Wind Pressure Humidity
    00:00 +27°C° 0 mm 1 mps 751 mmHg 70%
    01:00 +27°C° 0 mm 1 mps 751 mmHg 70%
    02:00 +26°C° 0 mm 1 mps 750 mmHg 70%
    03:00 +26°C° 0 mm 1 mps 751 mmHg 70%
    04:00 +26°C° 0 mm 1 mps 751 mmHg 71%
    05:00 +26°C° 0 mm 1 mps 751 mmHg 71%
    06:00 +28°C° 0 mm 1 mps 751 mmHg 65%
    07:00 +29°C° 0 mm 1 mps 752 mmHg 59%
    08:00 +31°C° 0 mm 1 mps 753 mmHg 53%
    09:00 +35°C° 0 mm 2 mps 753 mmHg 47%
    10:00 +37°C° 0 mm 2 mps 753 mmHg 40%
    11:00 +39°C° 0 mm 2 mps 752 mmHg 34%
    12:00 +39°C° 0 mm 3 mps 752 mmHg 34%
    13:00 +39°C° 0 mm 3 mps 751 mmHg 34%
    14:00 +40°C° 0 mm 4 mps 750 mmHg 35%
    15:00 +38°C° 0 mm 3 mps 749 mmHg 40%
    16:00 +36°C° 0 mm 3 mps 749 mmHg 46%
    17:00 +35°C° 0 mm 3 mps 749 mmHg 51%
    18:00 +32°C° 0 mm 2 mps 750 mmHg 60%
    19:00 +30°C° 0 mm 1 mps 750 mmHg 69%
    20:00 +28°C° 0 mm 1 mps 751 mmHg 78%
    21:00 +28°C° 0 mm 1 mps 751 mmHg 79%
    22:00 +27°C° 0 mm 1 mps 751 mmHg 80%
    23:00 +27°C° 0 mm 1 mps 752 mmHg 82%

    24 March, Sunday

    Time Temperature Precipitation Wind Pressure Humidity
    00:00 +27°C° 0 mm 1 mps 751 mmHg 82%
    01:00 +26°C° 0 mm 1 mps 751 mmHg 83%
    02:00 +26°C° 0 mm 1 mps 750 mmHg 84%
    03:00 +26°C° 0 mm 1 mps 750 mmHg 84%
    04:00 +26°C° 0 mm 1 mps 751 mmHg 84%
    05:00 +26°C° 0 mm 1 mps 751 mmHg 84%
    06:00 +27°C° 0 mm 1 mps 751 mmHg 76%
    07:00 +29°C° 0 mm 2 mps 752 mmHg 69%
    08:00 +31°C° 0 mm 2 mps 752 mmHg 61%
    09:00 +34°C° 0 mm 2 mps 752 mmHg 52%
    10:00 +37°C° 0 mm 2 mps 752 mmHg 44%
    11:00 +39°C° 0 mm 2 mps 752 mmHg 35%
    12:00 +39°C° 0 mm 3 mps 751 mmHg 35%
    13:00 +39°C° 0 mm 3 mps 750 mmHg 36%
    14:00 +40°C° 0 mm 4 mps 749 mmHg 37%
    15:00 +38°C° 0 mm 4 mps 749 mmHg 43%
    16:00 +36°C° 0 mm 3 mps 749 mmHg 48%
    17:00 +34°C° 0 mm 3 mps 749 mmHg 54%
    18:00 +32°C° 0 mm 2 mps 749 mmHg 62%
    19:00 +30°C° 0 mm 1 mps 750 mmHg 70%
    20:00 +28°C° 0 mm 1 mps 751 mmHg 79%
    21:00 +27°C° 0 mm 1 mps 751 mmHg 80%
    22:00 +27°C° 0 mm 1 mps 751 mmHg 82%
    23:00 +27°C° 0 mm 1 mps 751 mmHg 84%

    25 March, Monday

    Time Temperature Precipitation Wind Pressure Humidity
    00:00 +26°C° 0 mm 1 mps 751 mmHg 84%
    01:00 +26°C° 0 mm 1 mps 750 mmHg 85%
    02:00 +26°C° 0 mm 1 mps 750 mmHg 85%
    03:00 +26°C° 0 mm 1 mps 750 mmHg 83%
    04:00 +26°C° 0 mm 1 mps 750 mmHg 82%
    05:00 +25°C° 0 mm 1 mps 750 mmHg 80%
    06:00 +28°C° 0 mm 1 mps 751 mmHg 71%
    07:00 +30°C° 0 mm 1 mps 751 mmHg 61%
    08:00 +32°C° 0 mm 1 mps 752 mmHg 52%
    09:00 +34°C° 0 mm 1 mps 752 mmHg 45%
    10:00 +38°C° 0 mm 2 mps 752 mmHg 38%
    11:00 +40°C° 0 mm 2 mps 751 mmHg 31%
    12:00 +40°C° 0 mm 3 mps 751 mmHg 33%
    13:00 +40°C° 0 mm 4 mps 750 mmHg 34%
    14:00 +40°C° 0 mm 4 mps 749 mmHg 36%
    15:00 +38°C° 0 mm 4 mps 749 mmHg 42%
    16:00 +36°C° 0 mm 3 mps 749 mmHg 48%
    17:00 +34°C° 0 mm 3 mps 749 mmHg 54%
    18:00 +32°C° 0 mm 2 mps 750 mmHg 61%
    19:00 +30°C° 0 mm 1 mps 750 mmHg 68%
    20:00 +29°C° 0 mm 1 mps 751 mmHg 74%
    21:00 +28°C° 0 mm 1 mps 751 mmHg 75%
    22:00 +28°C° 0 mm 1 mps 751 mmHg 76%
    23:00 +28°C° 0 mm 1 mps 752 mmHg 77%
    Show more